Regional Weather Roundup
Issued by NWS Jackson, KY

Home | Current Version | Previous Version | Graphics & Text | Print | Product List | Glossary On
Versions: 1 2 3 4 5 6 7 8 9 10 11 12 13 14 15 16 17 18 19 20 21 22 23 24 25 26 27
000
ASUS43 KJKL 191310
RWRJKL

EAST KENTUCKY HOURLY WEATHER ROUNDUP
NATIONAL WEATHER SERVICE JACKSON KY
800 AM EST MON FEB 19 2018

NOTE: "FAIR" INDICATES FEW OR NO CLOUDS BELOW 12,000 FEET WITH
NO SIGNIFICANT WEATHER AND/OR OBSTRUCTIONS TO VISIBILITY.

* THESE REPORTS ARE NOT UNDER NWS QUALITY CONTROL AND MAY NOT
  REPORT WEATHER SUCH AS PRECIPITATION AND FOG.

KYZ079-080-083-085-087-088-110-112-115-119-120-191400
...EASTERN KENTUCKY...

CITY           SKY/WX    TMP DP  RH WIND       PRES   REMARKS
JACKSON        CLOUDY    56  51  84 VRB6      30.21R
LONDON         MOCLDY    58  53  84 S7        30.22R
SOMERSET*      MOCLDY    59  55  88 S6        30.22R
WILLIAMSBURG*  PTSUNNY   57  54  88 SE9       30.24R
MIDDLESBORO*   CLOUDY    53  49  87 CALM      30.29S
HARLAN APT*    CLOUDY    54  46  76 CALM      30.28R
PIKE CO APT*   CLOUDY    55  51  86 S8        30.23R
BIG SANDY APT* PTSUNNY   57  51  82 S10G16    30.22R
MOREHEAD APT*    N/A     54  50  87 S9        30.17S
ASHLAND*       CLOUDY    47  45  93 E9G21     30.19R
$$

KYZ035-036-041-042-044-050-067-078-099-191400
...CENTRAL KENTUCKY...

CITY           SKY/WX    TMP DP  RH WIND       PRES   REMARKS
MT STERLING*   MOCLDY    54  54 100 SW10      30.17R
FLEMING/MASON* MOCLDY    51  51  98 S9        30.14S
DANVILLE*        N/A     55  54  94 S8        30.16S
LEXINGTON        N/A     59  54  83 S17G26    30.12S
FRANKFORT      CLOUDY    59  53  80 S13       30.11R
LOUISVILLE     CLOUDY    61  56  83 S13G22    30.08R
LEBANON*         N/A     59  55  88 S13       30.13S
GLASGOW*       CLOUDY    58  58  98 S8        30.15S
BOWLING GREEN  MOCLDY    61  58  90 S14G22    30.14S
$$

KYZ091>093-OHZ055-061-077-WVZ005-015-034-035-042-191400
...SOUTHERN OHIO/WEST VIRGINIA...

CITY           SKY/WX    TMP DP  RH WIND       PRES   REMARKS
COVINGTON      CLOUDY    59  56  89 S14G25    30.06R
COLUMBUS       LGT RAIN  49  47  93 S10       30.08R
DAYTON         LGT RAIN  51  51 100 S15       30.04R
WILMINGTON     CLOUDY    52  51  97 S16       30.06S
HUNTINGTON       N/A     50  47  89 S6        30.18S
CHARLESTON     CLOUDY    52  49  89 S6        30.21S
BECKLEY        CLOUDY    45  43  93 SE12      30.30R
BLUEFIELD      CLOUDY    49  42  77 VRB6      30.32R
LOGAN CO APT*  CLOUDY    54  48  82 S8G14     30.25R
$$

VAZ002-007-008-TNZ017-027-036-066-071-191400
...SOUTHWEST VIRGINIA/EAST TENNESSEE...

CITY           SKY/WX    TMP DP  RH WIND       PRES   REMARKS
WISE*          CLOUDY    52  52 100 S10       30.30S
JONESVILLE*      N/A     50  50 100 CALM      30.33R
ABINGDON*      CLOUDY    49  48  93 E5        30.32S
BRISTOL          N/A     50  50 100 E3        30.31R
MORRISTOWN*    CLOUDY    52  50  93 NE3       30.29R
SEVIERVILLE*   CLOUDY    50  48  93 CALM      30.29R
KNOXVILLE      CLOUDY    50  49  96 N6        30.28R
OAK RIDGE      CLOUDY    52  49  89 CALM      30.30R
CROSSVILLE     CLOUDY    57  55  93 S13G25    30.26S
NASHVILLE      MOCLDY    60  56  86 S9        30.18R
$$

...KEY TO REMARKS...
VSB - VISIBILITY IN MILES
WCI - WIND CHILL INDEX
HX  - HEAT INDEX

$$




USA.gov is the U.S. government's official web portal to all federal, state and local government web resources and services.